Chicopee, MA

12:35 AM EST on December 10, 2019 (GMT -0500)
Westover Air Reserve Base / Metropolitan Airport

Weather History for KCEF - September, 2019

Change the Weather History Date:

Sunday, September 22, 2019

  Actual Average Record
Temperature  
Mean Temperature 67 °F -  
Max Temperature 87 °F 68 °F 88 °F (2010)
Min Temperature 48 °F 47 °F 33 °F (1997)
Cooling Degree Days 2    
Growing Degree Days 17 (Base 50)    
Moisture  
Dew Point 54 °F    
Average Humidity 86    
Maximum Humidity 100    
Minimum Humidity 38    
Precipitation  
Precipitation 0.00 in - - ()
Sea Level Pressure  
Sea Level Pressure 30.14 in    
Wind  
Wind Speed 2 mph ()    
Max Wind Speed 13 mph    
Max Gust Speed -    
Visibility 5.4 miles    
Events      
Averages and records for this station are not official NWS values.
T = Trace of Precipitation, MM = Missing Value Source: Averaged Metar Reports

Daily Weather History Graph

Daily Weather History Graph

Search for Another Location

Airport or City:

Astronomy

Sep. 22, 2019 Rise Set
Actual Time 6:37 AM EDT 6:47 PM EDT
Civil Twilight 6:09 AM EDT 7:15 PM EDT
Nautical Twilight 5:36 AM EDT 7:48 PM EDT
Astronomical Twilight 5:02 AM EDT 8:21 PM EDT
Moon No Moon Rise 2:47 PM EDT (9/22)
Length of Visible Light 13h 06m
Length of Day
12h 10m
Last Quarter, 44% of the Moon is Illuminated
Sep 22
Last Quarter
Sep 28
New
Oct 5
First Quarter
Oct 13
Full
Oct 21
Last Quarter

Hourly Weather History & Observations

Time (EDT) Temp. Heat Index Dew Point Humidity Pressure Visibility Wind Dir Wind Speed Gust Speed Precip Events Conditions
12:12 AM 57.2 °F - 55.4 °F 94% 30.18 in 0.6 mi Calm Calm - N/A   Clear
12:15 AM 57.2 °F - 57.2 °F 100% 30.18 in 1.0 mi Calm Calm - N/A   Clear
12:16 AM 57.2 °F - 57.2 °F 100% 30.18 in 1.1 mi Calm Calm - N/A   Clear
12:23 AM 57.2 °F - 55.4 °F 94% 30.18 in 1.0 mi Calm Calm - N/A   Clear
12:38 AM 55.4 °F - 55.4 °F 100% 30.18 in 0.8 mi Calm Calm - N/A   Clear
12:51 AM 55.4 °F - 55.4 °F 100% 30.19 in 1.1 mi Calm Calm - N/A   Clear
12:52 AM 55.4 °F - 55.4 °F 100% 30.19 in 1.2 mi Calm Calm - N/A   Clear
12:56 AM 54.3 °F - 54.0 °F 99% 30.19 in 1.4 mi Calm Calm - N/A   Clear
1:11 AM 53.6 °F - 53.6 °F 100% 30.19 in 8.0 mi Calm Calm - N/A   Clear
1:26 AM 53.6 °F - 53.6 °F 100% 30.19 in 0.8 mi Calm Calm - N/A   Clear
1:31 AM 53.6 °F - 53.6 °F 100% 30.19 in 1.1 mi Calm Calm - N/A   Clear
1:44 AM 53.6 °F - 53.6 °F 100% 30.19 in 1.0 mi Calm Calm - N/A   Clear
1:46 AM 53.6 °F - 51.8 °F 94% 30.19 in 1.1 mi Calm Calm - N/A   Clear
1:56 AM 52.7 °F - 52.3 °F 99% 30.18 in 2.0 mi Calm Calm - N/A   Clear
2:11 AM 51.8 °F - 51.8 °F 100% 30.18 in 8.0 mi Calm Calm - N/A   Clear
2:26 AM 51.8 °F - 51.8 °F 100% 30.18 in 2.5 mi Calm Calm - N/A   Clear
2:41 AM 51.8 °F - 51.8 °F 100% 30.18 in 3.0 mi Calm Calm - N/A   Clear
2:56 AM 52.9 °F - 52.5 °F 99% 30.17 in 10.0 mi Calm Calm - N/A   Clear
3:20 AM 51.8 °F - 51.8 °F 100% 30.17 in 0.8 mi Calm Calm - N/A   Clear
3:28 AM 51.8 °F - 51.8 °F 100% 30.17 in 1.2 mi Calm Calm - N/A   Clear
3:43 AM 51.8 °F - 51.8 °F 100% 30.17 in 9.0 mi Calm Calm - N/A   Clear
3:56 AM 50.7 °F - 50.4 °F 99% 30.17 in 7.0 mi Calm Calm - N/A   Clear
4:10 AM 50.0 °F - 50.0 °F 100% 30.17 in 0.9 mi Calm Calm - N/A   Clear
4:15 AM 50.0 °F - 50.0 °F 100% 30.17 in 1.1 mi Calm Calm - N/A   Clear
4:30 AM 50.0 °F - 50.0 °F 100% 30.17 in 5.0 mi Calm Calm - N/A   Clear
4:56 AM 50.7 °F - 50.4 °F 99% 30.17 in 6.0 mi Calm Calm - N/A   Clear
5:37 AM 50.0 °F - 50.0 °F 100% 30.18 in 1.0 mi North 3.5 mph - N/A   Clear
5:39 AM 50.0 °F - 50.0 °F 100% 30.18 in 1.1 mi North 3.5 mph - N/A   Clear
5:53 AM 50.0 °F - 48.2 °F 94% 30.18 in 0.9 mi NNE 3.5 mph - N/A   Clear
5:56 AM 48.7 °F - 48.4 °F 99% 30.18 in 0.9 mi NNE 3.5 mph - N/A   Clear
6:07 AM 48.2 °F - 48.2 °F 100% 30.18 in 1.2 mi NE 3.5 mph - N/A   Clear
6:22 AM 48.2 °F - 48.2 °F 100% 30.18 in 10.0 mi East 3.5 mph - N/A   Clear
6:56 AM 49.5 °F - 49.1 °F 99% 30.18 in 6.0 mi Calm Calm - N/A   Clear
7:56 AM 53.8 °F - 53.8 °F 100% 30.18 in 10.0 mi Calm Calm - N/A   Clear
8:56 AM 58.8 °F - 58.8 °F 100% 30.18 in 10.0 mi Calm Calm - N/A   Clear
9:56 AM 66.2 °F - 57.2 °F 73% 30.17 in 10.0 mi Calm Calm - N/A   Partly Cloudy
10:56 AM 72.0 °F - 57.4 °F 60% 30.15 in 10.0 mi South 3.5 mph - N/A   Partly Cloudy
11:56 AM 76.5 °F - 58.1 °F 53% 30.13 in 10.0 mi South 8.1 mph - N/A   Partly Cloudy
12:56 PM 80.8 °F 81.2 °F 58.6 °F 47% 30.10 in 10.0 mi South 6.9 mph - N/A   Partly Cloudy
1:56 PM 83.8 °F 83.8 °F 59.5 °F 44% 30.09 in 10.0 mi SSW 10.4 mph - N/A   Scattered Clouds
2:56 PM 85.8 °F 85.4 °F 59.4 °F 41% 30.06 in 10.0 mi SSW 9.2 mph - N/A   Mostly Cloudy
3:56 PM 86.9 °F 86.1 °F 58.1 °F 38% 30.03 in 10.0 mi South 12.7 mph - N/A   Mostly Cloudy
4:56 PM 86.0 °F 85.7 °F 59.5 °F 41% 30.02 in 10.0 mi SW 11.5 mph - N/A   Mostly Cloudy
5:56 PM 81.7 °F 82.2 °F 60.1 °F 48% 30.01 in 10.0 mi South 10.4 mph - N/A   Scattered Clouds
6:56 PM 77.2 °F - 60.8 °F 57% 30.01 in 10.0 mi South 10.4 mph - N/A   Mostly Cloudy
7:56 PM 74.8 °F - 61.3 °F 63% 30.01 in 10.0 mi South 12.7 mph - N/A   Mostly Cloudy
8:56 PM 72.5 °F - 60.8 °F 67% 30.02 in 10.0 mi South 11.5 mph - N/A   Mostly Cloudy
9:56 PM 70.9 °F - 60.6 °F 70% 30.00 in 10.0 mi South 10.4 mph - N/A   Scattered Clouds
10:56 PM 68.5 °F - 60.3 °F 75% 29.99 in 10.0 mi South 5.8 mph - N/A   Partly Cloudy
11:56 PM 67.6 °F - 60.4 °F 78% 29.98 in 10.0 mi South 6.9 mph - N/A   Clear